Regional Weather Roundup
Issued by NWS

Home | Current Version | Previous Version | Graphics & Text | Print | Product List | Glossary On
Versions: 1 2 3 4 5 6 7 8 9 10 11 12 13 14 15 16 17 18 19 20 21 22 23 24 25 26 27
000
ASUS45 KTFX 200710
RWRMT
MONTANA REGIONAL WEATHER ROUNDUP
NATIONAL WEATHER SERVICE GREAT FALLS MT
100 AM MDT SUN AUG 20 2017

NOTE: "FAIR" INDICATES FEW OR NO CLOUDS BELOW 12000 FEET WITH NO
SIGNIFICANT WEATHER AND/OR OBSTRUCTIONS TO VISIBILITY.

MTZ001>007-043-200800-
WEST OF THE DIVIDE

CITY           SKY/WX    TMP DP  RH WIND       PRES   REMARKS
KALISPELL      CLEAR     47  39  74 CALM      30.03S
MISSOULA       CLEAR     58  39  49 N5        30.07S
BUTTE          CLEAR     50  34  54 SE7       30.16R
MULLAN PASS    CLEAR     51  32  48 CALM      30.19R
ANACONDA         N/A     55  34  44 S5        30.14R
DEER LODGE       N/A     57  36  44 W9        30.13S
EUREKA           N/A     57  32  38 MISG      30.01S
HAMILTON         N/A     54  39  58 CALM      30.10R
LIBBY            N/A     55  36  47 CALM      30.03R
RONAN            N/A     52  41  66 MISG      30.10S
$$

MTZ008-052>055-200800-
SOUTHWEST MONTANA

CITY           SKY/WX    TMP DP  RH WIND       PRES   REMARKS
BOZEMAN        PTCLDY    67  37  33 SW14      30.07R
DILLON         CLEAR     56  31  38 E5        30.11R
W YELLOWSTONE  CLOUDY    46  36  66 CALM      30.15R
THREE FORKS      N/A     60  37  42 CALM      30.07R
$$

MTZ009-010-012-014-046-048-049-054-200800-
EAST SLOPES AND CENTRAL MONTANA

CITY           SKY/WX    TMP DP  RH WIND       PRES   REMARKS
CUT BANK       PTCLDY    54  35  48 SE6       30.06S
GREAT FALLS    CLEAR     56  38  50 E7        30.04R
MALMSTROM AFB  CLEAR     57  38  49 SE3       30.04R
HELENA         CLEAR     63  36  36 W9        30.08R
AUGUSTA          N/A     48  35  61 NW8       30.07S
BOWMANS CRNR     N/A     56  36  47 S3        30.05S
CHOTEAU          N/A     50  37  62 N5        30.08R
FAIRFIELD        N/A     52  35  52 CALM      30.05S
POWER            N/A     55  34  45 E9        30.04S
RAYNESFORD       N/A     58  38  47 SE8       30.06R
ULM              N/A     51  37  59 CALM      30.04R
$$

MTZ011-013-016-021-045-047-050-051-200800-
NORTH CENTRAL MONTANA

CITY           SKY/WX    TMP DP  RH WIND       PRES   REMARKS
HAVRE          CLEAR     55  34  45 E10       30.03F
LEWISTOWN      CLEAR     57  36  45 E12       30.08R
N BAR RANCH      N/A     50  36  57 CALM      30.14R
CHINOOK          N/A     55  34  44 CALM      30.05R
DENTON           N/A     59  37  44 S7        30.03R
GEYSER           N/A     53  37  54 CALM      30.07R
GRASS RANGE      N/A     53  35  50 W7        30.07R
JUDITH GAP       N/A     55  37  50 SE5       30.09F
WINIFRED       MOCLDY    58  34  39 E18G25    30.06R
$$

MTZ017>020-022>027-061-062-200800-
NORTHEAST MONTANA

CITY           SKY/WX    TMP DP  RH WIND       PRES   REMARKS
GLASGOW        CLEAR     57  30  35 NE12      30.02R
JORDAN           N/A     63  35  35 NE7       30.03R
SIDNEY         PTCLDY    58  38  47 N6        30.01R
WOLF POINT     CLEAR     63  31  30 VRB7      30.02R
MALTA          MOCLDY    50  36  57 E3        30.04S
PLENTYWOOD       N/A     54  36  50 CALM      30.02R
POPLAR           N/A     55  36  47 SE5       30.02R
SCOBEY           N/A     46  28  49 CALM      30.02R
$$

MTZ028>42-056>058-200800-
SOUTHCENTRAL AND SOUTHEAST MONTANA

CITY           SKY/WX    TMP DP  RH WIND       PRES   REMARKS
BAKER          PTCLDY    62  40  44 NE7       30.03R
BILLINGS       PTCLDY    63  37  38 NE9       30.03R
LIVINGSTON     CLOUDY    65  37  35 E16G25    30.08R
MILES CITY     MOCLDY    65  37  35 NE7       30.01R
BIG TIMBER     PTCLDY    61  39  44 VRB5      30.13R
HARLOWTON      MOCLDY    59  46  61 MISG      30.08F
LAUREL           N/A     63  35  35 N6        30.03R
$$

REGIONAL REPORTS...DAKOTAS

CITY           SKY/WX    TMP DP  RH WIND       PRES   REMARKS
WILLISTON      PTCLDY    57  40  52 N8        29.99R
MINOT          MOCLDY    62  42  47 W12       29.92R
DICKINSON      MOCLDY    60  43  53 N5        29.97R
BEACH            N/A     54  43  66 N5        30.04R
CROSBY           N/A     55  37  50 W12       29.98R
TIOGA            N/A     55  39  54 NW12      30.00R
BISMARCK       CLEAR     68  47  46 N13       29.92R
GRAND FORKS    PTCLDY    69  63  81 NW12      29.75R
FARGO          PTCLDY    68  65  90 S10       29.77F
BUFFALO SD       N/A     67  45  45 N10       29.97S
RAPID CITY     CLEAR     62  43  49 NW8       29.97F
$$

REGIONAL REPORTS...WYOMING/IDAHO/WASHINGTON

CITY           SKY/WX    TMP DP  RH WIND       PRES   REMARKS
GILLETTE       PTCLDY    63  39  41 CALM      30.02R
SHERIDAN       CLOUDY    53  42  66 S3        30.04R
BUFFALO WY     PTCLDY    62  34  35 NW7       30.10R
CODY           CLEAR     58  35  42 VRB3      30.07R
YELLOWSTONE LA   N/A     42  35  76 NW3       30.24R
IDAHO FALLS    CLEAR     66  42  41 SW10      30.04R
SALMON         CLEAR     64  40  41 CALM      30.08R
BOISE          CLEAR     67  37  33 CALM      29.98R
SPOKANE        PTCLDY    63  34  33 SW9       30.04S
$$

REGIONAL REPORTS...ALBERTA

CITY           SKY/WX    TMP DP  RH WIND       PRES   REMARKS
EDMONTON       CLEAR     50  41  71 W6        29.95S
CALGARY        PTCLDY    55  34  44 SW7       30.02S
LETHBRIDGE     CLEAR     48  37  66 SE8       30.01S
MEDICINE HAT   CLOUDY    50  45  81 S2        30.01S
$$

REGIONAL REPORTS...SASKATCHEWAN

CITY           SKY/WX    TMP DP  RH WIND       PRES   REMARKS
SWIFT CURRENT  CLEAR     45  34  65 SW12      30.01R
REGINA         CLEAR     45  36  70 W6        29.96R
SASKATOON      CLEAR     45  39  81 SW7       29.95R
$$




USA.gov is the U.S. government's official web portal to all federal, state and local government web resources and services.